Year,Month,Day,Hour,Minute,Value (Times are PST for temperature in C)
2014,08,08,09,19,17.50
2014,08,08,09,20,17.50
2014,08,08,09,21,17.50
2014,08,08,09,22,17.50
2014,08,08,09,23,17.40
2014,08,08,09,24,17.40
2014,08,08,09,25,17.40
2014,08,08,09,26,17.50
2014,08,08,09,27,17.50
2014,08,08,09,28,17.60
2014,08,08,09,29,17.60
2014,08,08,09,30,17.60
2014,08,08,09,31,17.60
2014,08,08,09,32,17.60
2014,08,08,09,33,17.60
2014,08,08,09,34,17.70
2014,08,08,09,35,17.70
2014,08,08,09,36,17.70
2014,08,08,09,37,17.70
2014,08,08,09,38,17.80
2014,08,08,09,39,17.80
2014,08,08,09,40,17.80
2014,08,08,09,41,17.90
2014,08,08,09,42,17.90
2014,08,08,09,43,17.90
2014,08,08,09,44,17.90
2014,08,08,09,45,18.00
2014,08,08,09,46,17.90
2014,08,08,09,47,17.90
2014,08,08,09,48,17.90
2014,08,08,09,49,18.00
2014,08,08,09,50,18.00
2014,08,08,09,51,18.00
2014,08,08,09,52,18.00
2014,08,08,09,53,18.10
2014,08,08,09,54,18.10
2014,08,08,09,55,18.20
2014,08,08,09,56,18.20
2014,08,08,09,57,18.20
2014,08,08,09,58,18.20
2014,08,08,09,59,18.20
2014,08,08,10,00,18.10
2014,08,08,10,01,18.10
2014,08,08,10,02,18.10
2014,08,08,10,03,18.10
2014,08,08,10,04,18.10
2014,08,08,10,05,18.10
2014,08,08,10,06,18.00
2014,08,08,10,07,18.00
2014,08,08,10,08,17.90
2014,08,08,10,09,17.90
2014,08,08,10,10,17.90
2014,08,08,10,11,17.90
2014,08,08,10,12,17.90
2014,08,08,10,13,17.90
2014,08,08,10,14,17.90
2014,08,08,10,15,18.00
2014,08,08,10,16,18.00
2014,08,08,10,17,18.10
2014,08,08,10,18,18.10
2014,08,08,10,19,18.10
2014,08,08,10,20,18.10
2014,08,08,10,21,18.10
2014,08,08,10,22,18.20
2014,08,08,10,23,18.20
2014,08,08,10,24,18.20
2014,08,08,10,25,18.30
2014,08,08,10,26,18.30
2014,08,08,10,27,18.30
2014,08,08,10,28,18.40
2014,08,08,10,29,18.40
2014,08,08,10,30,18.40
2014,08,08,10,31,18.50
2014,08,08,10,32,18.50
2014,08,08,10,33,18.50
2014,08,08,10,34,18.50
2014,08,08,10,35,18.60
2014,08,08,10,36,18.60
2014,08,08,10,37,18.60
2014,08,08,10,38,18.60
2014,08,08,10,39,18.60
2014,08,08,10,40,18.60
2014,08,08,10,41,18.60
2014,08,08,10,42,18.60
2014,08,08,10,43,18.60
2014,08,08,10,44,18.60
2014,08,08,10,45,18.50
2014,08,08,10,46,18.50
2014,08,08,10,47,18.50
2014,08,08,10,48,18.40
2014,08,08,10,49,18.40
2014,08,08,10,50,18.40
2014,08,08,10,51,18.40
2014,08,08,10,52,18.30
2014,08,08,10,53,18.30
2014,08,08,10,54,18.30
2014,08,08,10,55,18.30
2014,08,08,10,56,18.30
2014,08,08,10,57,18.40
2014,08,08,10,58,18.50
2014,08,08,10,59,18.50
2014,08,08,11,00,18.50
2014,08,08,11,01,18.50
2014,08,08,11,02,18.50
2014,08,08,11,03,18.50
2014,08,08,11,04,18.50
2014,08,08,11,05,18.60
2014,08,08,11,06,18.60
2014,08,08,11,07,18.60
2014,08,08,11,08,18.60
2014,08,08,11,09,18.60
2014,08,08,11,10,18.60
2014,08,08,11,11,18.70
2014,08,08,11,12,18.70
2014,08,08,11,13,18.80
2014,08,08,11,14,18.90
2014,08,08,11,15,18.90
2014,08,08,11,16,18.80
2014,08,08,11,17,18.80
2014,08,08,11,18,18.80
2014,08,08,11,19,18.80
2014,08,08,11,20,18.80
2014,08,08,11,21,18.90
2014,08,08,11,22,18.90
2014,08,08,11,23,18.90
2014,08,08,11,24,18.90
2014,08,08,11,25,18.90
2014,08,08,11,26,18.90
2014,08,08,11,27,19.00
2014,08,08,11,28,19.00
2014,08,08,11,29,19.10
2014,08,08,11,30,19.10
2014,08,08,11,31,19.10
2014,08,08,11,32,19.10
2014,08,08,11,33,19.10
2014,08,08,11,34,19.20
2014,08,08,11,35,19.20
2014,08,08,11,36,19.20
2014,08,08,11,37,19.30
2014,08,08,11,38,19.30
2014,08,08,11,39,19.30
2014,08,08,11,40,19.30
2014,08,08,11,41,19.30
2014,08,08,11,42,19.30
2014,08,08,11,43,19.30
2014,08,08,11,44,19.30
2014,08,08,11,45,19.40
2014,08,08,11,46,19.40
2014,08,08,11,47,19.40
2014,08,08,11,48,19.30
2014,08,08,11,49,19.30
2014,08,08,11,50,19.30
2014,08,08,11,51,19.30
2014,08,08,11,52,19.40
2014,08,08,11,53,19.40
2014,08,08,11,54,19.50
2014,08,08,11,55,19.50
2014,08,08,11,56,19.50
2014,08,08,11,57,19.60
2014,08,08,11,58,19.50
2014,08,08,11,59,19.50
2014,08,08,12,00,19.50
2014,08,08,12,01,19.50
2014,08,08,12,02,19.60
2014,08,08,12,03,19.60
2014,08,08,12,04,19.70
2014,08,08,12,05,19.80
2014,08,08,12,06,19.80
2014,08,08,12,07,19.80
2014,08,08,12,08,19.80
2014,08,08,12,09,19.80
2014,08,08,12,10,19.90
2014,08,08,12,11,19.90
2014,08,08,12,12,19.90
2014,08,08,12,13,19.90
2014,08,08,12,14,19.90
2014,08,08,12,15,19.90
2014,08,08,12,16,20.00
2014,08,08,12,17,20.00
2014,08,08,12,18,20.10
2014,08,08,12,19,20.10
2014,08,08,12,20,20.10
2014,08,08,12,21,20.10
2014,08,08,12,22,20.10
2014,08,08,12,23,20.10
2014,08,08,12,24,20.10
2014,08,08,12,25,20.10
2014,08,08,12,26,20.10
2014,08,08,12,27,20.20
2014,08,08,12,28,20.20
2014,08,08,12,29,20.20
2014,08,08,12,30,20.30
2014,08,08,12,31,20.30
2014,08,08,12,32,20.30
2014,08,08,12,33,20.20
2014,08,08,12,34,20.20
2014,08,08,12,35,20.20
2014,08,08,12,36,20.20
2014,08,08,12,37,20.30
2014,08,08,12,38,20.30
2014,08,08,12,39,20.40
2014,08,08,12,40,20.40
2014,08,08,12,41,20.40
2014,08,08,12,42,20.40
2014,08,08,12,43,20.50
2014,08,08,12,44,20.60
2014,08,08,12,45,20.60
2014,08,08,12,46,20.70
2014,08,08,12,47,20.70
2014,08,08,12,48,20.70
2014,08,08,12,49,20.70
2014,08,08,12,50,20.60
2014,08,08,12,51,20.40
2014,08,08,12,52,20.30
2014,08,08,12,53,20.20
2014,08,08,12,54,20.20
2014,08,08,12,55,20.10
2014,08,08,12,56,20.10
2014,08,08,12,57,20.10
2014,08,08,12,58,20.00
2014,08,08,12,59,20.10
2014,08,08,13,00,20.10
2014,08,08,13,01,20.20
2014,08,08,13,02,20.30
2014,08,08,13,03,20.10
2014,08,08,13,04,19.80
2014,08,08,13,05,19.50
2014,08,08,13,06,19.20
2014,08,08,13,07,19.00
2014,08,08,13,08,18.80
2014,08,08,13,09,18.70
2014,08,08,13,10,18.50
2014,08,08,13,11,18.30
2014,08,08,13,12,18.10
2014,08,08,13,13,17.80
2014,08,08,13,14,17.70
2014,08,08,13,15,17.50
2014,08,08,13,16,17.30
2014,08,08,13,17,17.10
2014,08,08,13,18,17.00
2014,08,08,13,19,16.90
2014,08,08,13,20,16.80
2014,08,08,13,21,16.70
2014,08,08,13,22,16.60
2014,08,08,13,23,16.40
2014,08,08,13,24,16.40
2014,08,08,13,25,16.30
2014,08,08,13,26,16.30
2014,08,08,13,27,16.20
2014,08,08,13,28,16.20
2014,08,08,13,29,16.10
2014,08,08,13,30,16.10
2014,08,08,13,31,16.10
2014,08,08,13,32,16.00
2014,08,08,13,33,16.00
2014,08,08,13,34,16.00
2014,08,08,13,35,16.10
2014,08,08,13,36,16.10
2014,08,08,13,37,16.00
2014,08,08,13,38,15.90
2014,08,08,13,39,15.90
2014,08,08,13,40,15.90
2014,08,08,13,41,15.90
2014,08,08,13,42,15.80
2014,08,08,13,43,15.80
2014,08,08,13,44,15.80
2014,08,08,13,45,15.80
2014,08,08,13,46,15.80
2014,08,08,13,47,15.90
2014,08,08,13,48,15.90
2014,08,08,13,49,15.90
2014,08,08,13,50,16.00
2014,08,08,13,51,16.10
2014,08,08,13,52,16.10
2014,08,08,13,53,16.10
2014,08,08,13,54,16.10
2014,08,08,13,55,16.10
2014,08,08,13,56,16.20
2014,08,08,13,57,16.20
2014,08,08,13,58,16.20
2014,08,08,13,59,16.20
2014,08,08,14,00,16.30
2014,08,08,14,01,16.30
2014,08,08,14,02,16.30
2014,08,08,14,03,16.30
2014,08,08,14,04,16.40
2014,08,08,14,05,16.40
2014,08,08,14,06,16.40
2014,08,08,14,07,16.40
2014,08,08,14,08,16.40
2014,08,08,14,09,16.40
2014,08,08,14,10,16.40
2014,08,08,14,11,16.50
2014,08,08,14,12,16.50
2014,08,08,14,13,16.50
2014,08,08,14,14,16.60
2014,08,08,14,15,16.60
2014,08,08,14,16,16.60
2014,08,08,14,17,16.60
2014,08,08,14,18,16.60
2014,08,08,14,19,16.60
2014,08,08,14,20,16.60
2014,08,08,14,21,16.60
2014,08,08,14,22,16.50
2014,08,08,14,23,16.50
2014,08,08,14,24,16.40
2014,08,08,14,25,16.40
2014,08,08,14,26,16.40
2014,08,08,14,27,16.40
2014,08,08,14,28,16.40
2014,08,08,14,29,16.40
2014,08,08,14,30,16.40
2014,08,08,14,31,16.40
2014,08,08,14,32,16.50
2014,08,08,14,33,16.50
2014,08,08,14,34,16.40
2014,08,08,14,35,16.40
2014,08,08,14,36,16.40
2014,08,08,14,37,16.40
2014,08,08,14,38,16.30
2014,08,08,14,39,16.30
2014,08,08,14,40,16.30
2014,08,08,14,41,16.40
2014,08,08,14,42,16.40
2014,08,08,14,43,16.50
2014,08,08,14,44,16.60
2014,08,08,14,45,16.60
2014,08,08,14,46,16.60
2014,08,08,14,47,16.70
2014,08,08,14,48,16.70
2014,08,08,14,49,16.70
2014,08,08,14,50,16.80
2014,08,08,14,51,16.80
2014,08,08,14,52,16.80
2014,08,08,14,53,16.80
2014,08,08,14,54,16.70
2014,08,08,14,55,16.60
2014,08,08,14,56,16.50
2014,08,08,14,57,16.50
2014,08,08,14,58,16.50
2014,08,08,14,59,16.40
2014,08,08,15,00,16.40
2014,08,08,15,01,16.30
2014,08,08,15,02,16.30
2014,08,08,15,03,16.30
2014,08,08,15,04,16.30
2014,08,08,15,05,16.20
2014,08,08,15,06,16.20
2014,08,08,15,07,16.20
2014,08,08,15,08,16.20
2014,08,08,15,09,16.30
2014,08,08,15,10,16.40
2014,08,08,15,11,16.40
2014,08,08,15,12,16.40
2014,08,08,15,13,16.40
2014,08,08,15,14,16.50
2014,08,08,15,15,16.50
2014,08,08,15,16,16.40
2014,08,08,15,17,16.40
2014,08,08,15,18,16.40
2014,08,08,15,19,16.40
2014,08,08,15,20,16.40
2014,08,08,15,21,16.40
2014,08,08,15,22,16.30
2014,08,08,15,23,16.30
2014,08,08,15,24,16.30
2014,08,08,15,25,16.20
2014,08,08,15,26,16.10
2014,08,08,15,27,16.10
2014,08,08,15,28,16.00
2014,08,08,15,29,16.00
2014,08,08,15,30,16.00
2014,08,08,15,31,16.00
2014,08,08,15,32,16.10
2014,08,08,15,33,16.10
2014,08,08,15,34,16.20
2014,08,08,15,35,16.40
2014,08,08,15,36,16.60
2014,08,08,15,37,16.90
2014,08,08,15,38,17.30
2014,08,08,15,39,17.60
2014,08,08,15,40,18.00
2014,08,08,15,41,18.40
2014,08,08,15,42,18.80
2014,08,08,15,43,19.20
2014,08,08,15,44,19.50
2014,08,08,15,45,19.80
2014,08,08,15,46,20.10
2014,08,08,15,47,20.30
2014,08,08,15,48,20.40
2014,08,08,15,49,20.50
2014,08,08,15,50,20.60
2014,08,08,15,51,20.70
2014,08,08,15,52,20.70
2014,08,08,15,53,20.70
2014,08,08,15,54,20.80
2014,08,08,15,55,20.80
2014,08,08,15,56,20.80
2014,08,08,15,57,20.90
2014,08,08,15,58,21.00
2014,08,08,15,59,21.10
2014,08,08,16,00,21.20
2014,08,08,16,01,21.30
2014,08,08,16,02,21.40
2014,08,08,16,03,21.50
2014,08,08,16,04,21.60
2014,08,08,16,05,21.60
2014,08,08,16,06,21.70
2014,08,08,16,07,21.70
2014,08,08,16,08,21.70
2014,08,08,16,09,21.80
2014,08,08,16,10,21.90
2014,08,08,16,11,22.00
2014,08,08,16,12,22.20
2014,08,08,16,13,22.20
2014,08,08,16,14,22.30
2014,08,08,16,15,22.30
2014,08,08,16,16,22.30
2014,08,08,16,17,22.30
2014,08,08,16,18,22.40
2014,08,08,16,19,22.40
2014,08,08,16,20,22.30
2014,08,08,16,21,22.30
2014,08,08,16,22,22.30
2014,08,08,16,23,22.30
2014,08,08,16,24,22.20
2014,08,08,16,25,22.20
2014,08,08,16,26,22.20
2014,08,08,16,27,22.10
2014,08,08,16,28,22.00
2014,08,08,16,29,22.00
2014,08,08,16,30,22.00
2014,08,08,16,31,22.00
2014,08,08,16,32,22.00
2014,08,08,16,33,22.10
2014,08,08,16,34,22.10
2014,08,08,16,35,22.20
2014,08,08,16,36,22.20
2014,08,08,16,37,22.30
2014,08,08,16,38,22.30
2014,08,08,16,39,22.30
2014,08,08,16,40,22.20
2014,08,08,16,41,22.20
2014,08,08,16,42,22.30
2014,08,08,16,43,22.30
2014,08,08,16,44,22.30
2014,08,08,16,45,22.30
2014,08,08,16,46,22.40
2014,08,08,16,47,22.40
2014,08,08,16,48,22.40
2014,08,08,16,49,22.40
2014,08,08,16,50,22.40
2014,08,08,16,51,22.30
2014,08,08,16,52,22.20
2014,08,08,16,53,22.20
2014,08,08,16,54,22.10
2014,08,08,16,55,22.10
2014,08,08,16,56,22.10
2014,08,08,16,57,22.10
2014,08,08,16,58,22.10
2014,08,08,16,59,22.10
2014,08,08,17,00,22.10
2014,08,08,17,01,22.10
2014,08,08,17,02,22.10
2014,08,08,17,03,22.10
2014,08,08,17,04,22.10
2014,08,08,17,05,22.10
2014,08,08,17,06,22.10
2014,08,08,17,07,22.00
2014,08,08,17,08,22.00
2014,08,08,17,09,22.00
2014,08,08,17,10,21.90
2014,08,08,17,11,21.90
2014,08,08,17,12,22.00
2014,08,08,17,13,22.00
2014,08,08,17,14,22.10
2014,08,08,17,15,22.20
2014,08,08,17,16,22.20
2014,08,08,17,17,22.10
2014,08,08,17,18,22.00
2014,08,08,17,19,22.00
2014,08,08,17,20,22.00
2014,08,08,17,21,22.00
2014,08,08,17,22,22.00
2014,08,08,17,23,22.00
2014,08,08,17,24,22.00
2014,08,08,17,25,22.00
2014,08,08,17,26,22.00
2014,08,08,17,27,22.10
2014,08,08,17,28,22.10
2014,08,08,17,29,22.10
2014,08,08,17,30,22.20
2014,08,08,17,31,22.10
2014,08,08,17,32,22.10
2014,08,08,17,33,22.10
2014,08,08,17,34,22.10
2014,08,08,17,35,22.00
2014,08,08,17,36,21.90
2014,08,08,17,37,21.80
2014,08,08,17,38,21.80
2014,08,08,17,39,21.70
2014,08,08,17,40,21.70
2014,08,08,17,41,21.70
2014,08,08,17,42,21.70
2014,08,08,17,43,21.80
2014,08,08,17,44,21.80
2014,08,08,17,45,21.80
2014,08,08,17,46,21.90
2014,08,08,17,47,21.90
2014,08,08,17,48,22.00
2014,08,08,17,49,21.90
2014,08,08,17,50,21.90
2014,08,08,17,51,21.90
2014,08,08,17,52,21.90
2014,08,08,17,53,21.90
2014,08,08,17,54,21.80
2014,08,08,17,55,21.80
2014,08,08,17,56,21.70
2014,08,08,17,57,21.60
2014,08,08,17,58,21.50
2014,08,08,17,59,21.40
2014,08,08,18,00,21.40
2014,08,08,18,01,21.40
2014,08,08,18,02,21.40
2014,08,08,18,03,21.50
2014,08,08,18,04,21.50
2014,08,08,18,05,21.50
2014,08,08,18,06,21.60
2014,08,08,18,07,21.60
2014,08,08,18,08,21.60
2014,08,08,18,09,21.60
2014,08,08,18,10,21.50
2014,08,08,18,11,21.40
2014,08,08,18,12,21.40
2014,08,08,18,13,21.40
2014,08,08,18,14,21.40
2014,08,08,18,15,21.40
2014,08,08,18,16,21.40
2014,08,08,18,17,21.40
2014,08,08,18,18,21.40
2014,08,08,18,19,21.40
2014,08,08,18,20,21.30
2014,08,08,18,21,21.30
2014,08,08,18,22,21.20
2014,08,08,18,23,21.10
2014,08,08,18,24,21.10
2014,08,08,18,25,21.00
2014,08,08,18,26,21.00
2014,08,08,18,27,20.90
2014,08,08,18,28,20.80
2014,08,08,18,29,20.80
2014,08,08,18,30,20.70
2014,08,08,18,31,20.70
2014,08,08,18,32,20.70
2014,08,08,18,33,20.70
2014,08,08,18,34,20.70
2014,08,08,18,35,20.80
2014,08,08,18,36,20.80
2014,08,08,18,37,20.80
2014,08,08,18,38,20.80
2014,08,08,18,39,20.80
2014,08,08,18,40,20.80
2014,08,08,18,41,20.80
2014,08,08,18,42,20.70
2014,08,08,18,43,20.70
2014,08,08,18,44,20.60
2014,08,08,18,45,20.50
2014,08,08,18,46,20.50
2014,08,08,18,47,20.40
2014,08,08,18,48,20.40
2014,08,08,18,49,20.30
2014,08,08,18,50,20.30
2014,08,08,18,51,20.30
2014,08,08,18,52,20.30
2014,08,08,18,53,20.30
2014,08,08,18,54,20.20
2014,08,08,18,55,20.20
2014,08,08,18,56,20.10
2014,08,08,18,57,20.10
2014,08,08,18,58,20.10
2014,08,08,18,59,20.00
2014,08,08,19,00,20.00
2014,08,08,19,01,19.90
2014,08,08,19,02,19.90
2014,08,08,19,03,19.80
2014,08,08,19,04,19.80
2014,08,08,19,05,19.80
2014,08,08,19,06,19.80
2014,08,08,19,07,19.80
2014,08,08,19,08,19.70
2014,08,08,19,09,19.70
2014,08,08,19,10,19.70
2014,08,08,19,11,19.60
2014,08,08,19,12,19.60
2014,08,08,19,13,19.60
2014,08,08,19,14,19.60
2014,08,08,19,15,19.60
2014,08,08,19,16,19.60
2014,08,08,19,17,19.60
2014,08,08,19,18,19.60
2014,08,08,19,19,19.60
2014,08,08,19,20,19.60
2014,08,08,19,21,19.60
2014,08,08,19,22,19.60
2014,08,08,19,23,19.60
2014,08,08,19,24,19.60
